Wind_Speed
31 33 35 36 38 39 40 38 33 27 23 21 19 19 19 18 19 20 19 19 20 20 20 23 28 32 32 34 36 38 40 45 40 36 36 17 21 19 14 17 23 22 18 17 21
33 35 37 39 39 39 36 29 25 24 23 22 21 20 19 17 18 21 21 22 20 21 17 20 26 31 35 36 37 39 46 40 35 34 25 19 14 19 25 20 20 25 21 20 21
35 37 39 40 40 37 29 26 25 24 22 21 19 18 16 15 17 19 19 17 17 19 18 17 24 30 34 37 40 42 44 40 31 26 30 21 25 24 19 24 24 24 25 23 19
37 39 41 40 37 31 26 26 23 21 22 20 18 18 16 13 13 12 13 7 6 9 10 9 18 27 32 36 40 40 42 33 39 21 30 30 34 35 22 23 30 21 23 21 19
38 40 41 38 32 27 26 25 23 23 23 23 21 20 20 18 18 17 13 17 18 17 17 13 13 19 28 33 36 39 36 32 38 34 23 30 33 35 34 25 30 30 36 26 23
39 40 40 34 27 25 24 24 26 25 25 25 24 22 23 22 18 13 10 15 17 16 15 13 16 17 19 30 31 33 40 34 34 38 38 32 27 32 35 31 24 33 37 30 22
39 40 37 32 27 25 25 27 30 32 32 28 23 21 20 16 13 13 13 14 14 14 9 11 14 16 20 21 29 31 29 22 39 36 32 35 39 44 36 36 28 28 32 26 21
38 39 34 31 29 28 29 29 31 33 27 22 17 12 9 7 5 4 7 12 15 11 9 14 15 14 17 17 16 22 26 27 25 33 35 28 48 39 35 37 33 26 35 32 26
38 38 34 31 31 30 30 29 28 22 19 11 10 8 7 8 7 7 7 7 11 11 11 14 16 13 14 14 15 10 6 12 24 15 19 39 41 37 35 38 37 33 33 39 33
37 38 35 32 31 32 30 27 21 20 13 7 16 6 9 9 9 12 11 6 8 11 15 15 15 15 14 12 0 3 2 8 6 30 18 36 46 25 26 36 37 34 35 44 40
36 38 35 31 31 31 30 29 21 16 7 14 11 15 9 8 8 9 9 6 7 12 14 15 17 17 16 13 10 9 7 9 14 12 28 33 38 38 22 24 37 33 43 44 46
35 35 34 30 29 29 29 31 21 22 3 17 12 21 13 14 9 8 9 6 5 9 11 15 18 18 18 17 14 12 17 17 17 17 24 30 24 37 34 18 33 29 43 50 46
34 32 31 29 27 26 28 31 21 20 5 12 14 23 17 16 17 7 11 11 9 9 9 10 6 4 14 19 16 15 16 21 16 18 18 21 19 25 37 25 22 23 39 48 45
33 31 30 28 28 26 25 28 19 18 2 11 13 14 22 25 12 7 12 14 15 12 10 12 9 13 14 14 14 13 15 14 19 10 5 13 5 30 37 33 26 29 43 47 44
32 31 28 28 26 26 24 23 15 11 4 20 21 20 27 18 17 14 16 18 21 16 14 8 8 8 10 14 12 13 11 10 17 11 12 14 9 27 33 35 29 34 38 48 44
31 30 26 28 27 27 23 17 9 6 6 12 24 24 19 11 15 18 17 18 23 23 21 21 21 16 10 8 15 7 8 10 10 8 6 20 19 16 37 42 34 32 43 45 41
31 29 25 29 28 27 21 15 4 7 21 20 27 31 17 12 14 11 13 14 17 15 23 25 25 17 16 10 14 16 9 5 4 6 5 29 16 6 41 44 37 39 47 45 39
30 28 24 27 28 28 23 14 8 16 21 26 31 28 14 16 14 17 10 7 14 21 8 7 5 13 17 23 20 23 23 6 7 6 5 24 13 20 40 46 36 37 40 44 41
30 26 24 27 26 28 23 17 11 21 27 29 27 14 13 17 13 13 12 9 8 14 14 9 6 5 14 20 20 23 27 27 4 13 7 15 24 38 32 42 41 39 45 44 41
32 27 27 26 24 27 23 14 16 19 22 25 22 13 12 17 11 12 10 7 6 4 12 7 5 7 10 20 18 26 28 15 12 4 5 11 16 17 31 45 43 42 46 47 41
32 27 28 23 25 23 25 21 21 18 16 22 23 26 14 14 11 8 6 4 0 6 12 9 7 3 6 17 28 24 24 15 10 10 5 5 10 24 39 51 50 45 50 47 41
36 26 28 21 25 24 24 24 24 20 14 20 21 25 27 16 13 7 9 7 3 5 10 12 7 10 8 17 22 28 20 27 7 1 7 12 16 32 37 52 51 44 50 46 41
39 29 29 21 25 25 20 21 24 21 17 23 19 25 34 23 8 9 8 6 7 8 5 7 10 5 2 8 15 26 31 29 34 20 14 8 15 38 32 48 45 46 46 49 45
41 33 31 25 27 24 24 24 24 20 16 23 20 28 30 31 19 8 10 5 8 15 9 12 15 14 6 5 11 20 29 35 32 11 11 7 32 30 42 42 45 47 44 44 40
40 34 29 26 27 22 21 21 26 28 19 25 26 29 31 27 29 17 14 11 10 16 8 8 12 15 11 4 6 13 21 41 33 25 9 15 37 36 40 36 46 48 44 44 41
38 36 31 25 28 23 22 22 22 27 25 25 28 33 31 27 31 34 33 19 13 14 13 12 11 9 5 13 5 15 30 31 25 25 26 19 38 41 38 39 44 42 42 40 36
39 36 32 28 26 20 23 24 24 26 23 22 29 37 36 33 25 15 12 13 12 6 4 3 4 5 4 8 10 11 8 11 11 15 16 17 31 32 34 37 34 38 33 33 32
Wind_Direction
345 341 338 333 329 327 324 324 324 327 329 330 327 326 324 319 306 295 281 270 266 263 248 236 226 223 223 223 220 221 224 229 229 233 234 244 236 227 190 211 217 216 205 195 196
346 341 337 333 332 331 331 333 334 332 326 320 315 313 313 310 301 288 282 278 270 265 258 232 222 215 215 216 218 218 226 228 230 235 229 216 200 205 211 210 199 210 228 217 201
345 340 338 335 335 334 337 336 335 331 329 326 327 319 318 318 307 300 294 281 261 251 253 239 225 215 213 215 215 220 229 222 227 224 230 221 196 182 177 197 188 194 211 190 191
344 341 339 339 336 336 338 336 332 329 332 330 325 322 324 327 317 297 293 291 241 221 214 243 231 225 216 217 217 221 228 222 223 215 220 224 224 215 194 181 183 181 188 203 210
345 343 342 341 339 341 341 339 334 330 327 325 319 315 309 305 297 290 278 257 255 246 240 249 251 234 227 223 224 228 226 230 225 222 222 228 229 220 205 180 180 187 194 201 201
347 345 345 344 344 346 344 342 339 334 328 319 311 308 307 300 293 283 261 252 252 247 250 249 238 233 230 227 224 230 235 227 232 229 223 229 226 225 203 192 183 184 183 184 181
350 349 348 348 348 343 337 334 332 329 324 316 308 303 301 298 285 275 260 242 246 245 239 248 231 225 228 229 228 228 237 239 235 232 232 226 235 219 200 197 195 187 188 188 199
353 353 352 350 349 344 338 336 332 327 325 319 319 321 314 306 339 307 287 259 238 233 203 213 217 215 219 216 221 230 236 236 235 239 233 226 234 225 211 209 196 190 188 188 207
355 354 352 351 348 346 345 344 340 342 344 16 18 21 11 346 325 311 299 278 239 220 209 214 219 227 234 231 232 246 229 247 232 233 226 223 236 229 215 211 203 198 199 192 197
354 354 353 351 349 347 344 346 348 353 16 46 30 13 351 322 310 313 309 299 220 205 206 215 224 230 237 241 85 151 227 221 248 217 220 226 239 222 215 217 204 207 213 193 188
353 353 353 351 348 345 341 344 350 1 26 24 20 9 329 350 316 295 298 311 216 208 212 222 235 239 247 258 259 229 225 226 220 187 219 237 240 235 204 212 211 213 213 201 191
352 352 352 349 346 345 346 343 349 342 8 16 4 349 336 322 323 291 282 282 246 232 244 239 251 242 249 254 257 253 240 224 220 200 222 227 246 233 221 191 211 225 210 205 193
352 350 352 346 347 348 345 340 344 344 242 4 339 338 334 329 317 298 274 270 241 241 239 263 259 297 246 241 244 242 244 232 234 221 231 238 256 231 214 200 205 205 202 199 193
351 348 352 349 351 351 343 335 338 346 221 341 347 337 330 326 327 237 270 252 255 254 257 278 258 250 253 252 233 247 247 238 226 265 269 195 261 230 214 195 206 199 192 189 196
349 349 351 352 355 353 348 336 341 339 18 341 340 334 320 320 314 292 278 251 248 245 238 253 278 276 289 259 234 246 253 222 226 249 291 225 233 229 211 197 201 190 190 189 192
349 349 351 354 2 0 357 347 357 4 338 342 339 328 329 329 328 319 267 225 240 242 251 259 267 271 286 274 221 142 204 206 232 227 236 217 213 207 198 191 187 185 183 184 183
351 349 351 354 4 2 0 1 1 41 330 342 333 337 337 336 341 329 322 274 214 215 233 253 261 266 258 224 195 192 174 166 196 202 239 211 229 175 199 191 184 178 183 180 172
353 351 352 357 5 1 4 13 47 347 346 346 337 326 352 351 340 338 330 288 230 214 169 229 284 233 237 207 198 194 189 198 161 179 221 201 221 212 198 192 183 178 176 173 177
356 353 352 1 6 2 5 26 358 347 349 348 347 332 348 346 347 337 331 305 264 230 212 223 255 282 237 217 205 198 205 216 290 215 184 176 208 211 192 187 178 179 172 175 178
358 353 356 1 1 1 7 15 2 355 346 349 355 314 330 335 335 327 323 336 302 195 216 211 282 307 204 213 224 217 208 199 227 191 222 203 206 190 186 180 177 177 175 176 176
359 356 355 357 0 357 7 3 352 358 351 349 340 345 315 316 334 311 308 318 44 162 183 220 251 251 231 215 200 194 201 203 209 237 197 141 199 198 177 180 177 175 177 179 178
4 1 354 353 355 3 3 353 354 357 352 357 343 348 346 311 304 288 289 290 284 258 235 226 259 264 256 197 215 215 215 206 212 312 233 159 171 188 180 182 181 177 178 181 182
4 5 359 351 354 358 3 2 360 357 4 356 347 343 344 338 297 289 288 284 257 286 233 218 226 264 246 201 204 215 220 223 225 291 246 146 179 184 176 182 182 180 179 182 185
359 4 1 357 352 350 354 358 1 0 3 351 349 349 348 336 323 262 266 279 252 258 202 233 257 269 253 262 209 207 214 219 215 280 202 172 171 175 177 183 182 184 183 183 181
359 360 359 352 353 349 348 355 353 352 358 1 348 349 345 327 315 285 284 298 239 264 245 242 272 296 278 259 199 236 216 218 239 245 261 168 171 180 184 182 186 187 183 182 181
355 353 354 353 352 346 348 349 353 350 347 357 347 344 348 330 322 306 302 288 268 231 244 259 273 305 233 245 226 172 233 244 251 268 243 180 175 186 186 187 186 186 184 180 179
351 349 350 352 351 348 347 345 352 342 357 355 350 347 350 341 323 330 304 253 255 205 201 258 273 235 316 279 184 206 292 239 207 175 189 175 183 177 177 186 185 185 182 180 181
Height
3118 3113 3108 3103 3098 3091 3086 3081 3075 3072 3068 3065 3062 3060 3058 3056 3055 3054 3055 3054 3053 3053 3055 3058 3061 3066 3070 3074 3078 3082 3083 3081 3091 3098 3103 3110 3114 3119 3123 3126 3130 3133 3134 3135 3139
3116 3111 3105 3099 3092 3086 3081 3076 3072 3069 3066 3062 3059 3057 3055 3053 3051 3049 3050 3050 3051 3051 3052 3052 3054 3058 3063 3067 3071 3074 3072 3080 3089 3096 3102 3107 3110 3113 3118 3122 3125 3129 3131 3133 3135
3114 3108 3102 3095 3088 3082 3078 3074 3070 3066 3063 3059 3056 3053 3051 3050 3048 3046 3045 3045 3045 3048 3047 3048 3049 3052 3057 3061 3065 3067 3068 3078 3084 3092 3097 3102 3108 3110 3112 3117 3122 3126 3129 3132 3134
3112 3106 3099 3092 3085 3080 3076 3072 3068 3064 3061 3057 3054 3051 3048 3048 3048 3044 3043 3043 3043 3045 3045 3045 3046 3049 3052 3055 3059 3062 3065 3075 3082 3086 3091 3095 3102 3107 3109 3113 3117 3120 3125 3130 3132
3110 3103 3095 3089 3083 3079 3074 3070 3066 3062 3058 3055 3051 3048 3046 3046 3043 3041 3041 3039 3041 3042 3044 3044 3045 3046 3049 3053 3057 3059 3063 3068 3075 3082 3087 3090 3095 3101 3105 3110 3112 3116 3119 3126 3129
3108 3100 3093 3086 3082 3077 3072 3067 3063 3059 3055 3050 3047 3044 3042 3041 3038 3037 3037 3036 3036 3037 3039 3041 3042 3042 3045 3048 3053 3054 3058 3064 3069 3074 3081 3086 3089 3094 3101 3106 3108 3112 3117 3123 3127
3106 3099 3091 3085 3080 3076 3071 3066 3060 3055 3050 3045 3041 3039 3036 3035 3034 3033 3033 3033 3033 3035 3037 3038 3039 3042 3042 3045 3047 3050 3055 3059 3064 3070 3075 3083 3084 3075 3096 3100 3103 3108 3114 3120 3124
3104 3097 3090 3084 3079 3074 3069 3063 3057 3050 3045 3040 3037 3035 3033 3032 3033 3032 3031 3030 3030 3032 3035 3036 3037 3038 3039 3042 3043 3047 3051 3056 3060 3064 3071 3079 3063 3080 3090 3095 3099 3103 3109 3113 3119
3103 3096 3089 3083 3078 3073 3067 3061 3054 3048 3043 3039 3037 3035 3034 3034 3033 3031 3029 3029 3029 3030 3032 3034 3035 3038 3039 3041 3044 3046 3049 3052 3057 3062 3067 3068 3060 3074 3083 3089 3095 3098 3104 3107 3115
3102 3095 3088 3082 3076 3070 3064 3059 3053 3047 3043 3040 3039 3039 3037 3035 3033 3032 3030 3028 3028 3030 3032 3033 3034 3035 3037 3039 3043 3046 3048 3051 3053 3058 3061 3060 3059 3073 3078 3085 3092 3095 3098 3101 3110
3100 3094 3087 3081 3075 3069 3063 3056 3054 3049 3044 3042 3040 3039 3037 3035 3033 3032 3030 3028 3028 3030 3030 3031 3033 3033 3036 3039 3042 3045 3046 3048 3051 3053 3057 3054 3059 3066 3075 3081 3087 3091 3092 3099 3107
3100 3093 3087 3081 3074 3068 3061 3054 3050 3048 3044 3041 3039 3038 3035 3033 3032 3031 3031 3031 3029 3029 3030 3032 3030 3033 3034 3036 3038 3041 3043 3045 3047 3050 3051 3050 3052 3059 3068 3074 3081 3085 3089 3095 3103
3100 3094 3087 3080 3074 3068 3060 3053 3049 3044 3043 3041 3039 3037 3035 3033 3030 3030 3029 3029 3029 3029 3029 3030 3030 3030 3032 3034 3035 3037 3039 3043 3046 3047 3046 3048 3049 3054 3059 3068 3074 3077 3086 3095 3103
3100 3093 3087 3081 3075 3067 3061 3053 3048 3044 3042 3044 3039 3034 3031 3027 3027 3025 3026 3027 3026 3027 3028 3028 3027 3027 3028 3029 3033 3035 3038 3041 3044 3047 3045 3047 3046 3047 3054 3061 3068 3072 3081 3092 3102
3100 3093 3087 3079 3074 3068 3061 3053 3049 3046 3046 3045 3039 3034 3030 3029 3025 3025 3023 3022 3021 3024 3026 3026 3025 3026 3027 3028 3032 3034 3037 3040 3043 3046 3046 3042 3047 3041 3049 3056 3063 3068 3079 3091 3101
3099 3093 3086 3081 3074 3067 3060 3053 3050 3049 3046 3043 3039 3033 3028 3025 3022 3018 3017 3017 3019 3021 3021 3021 3022 3024 3024 3025 3028 3033 3035 3038 3041 3045 3043 3038 3040 3036 3041 3048 3057 3067 3078 3088 3098
3098 3091 3085 3079 3073 3066 3060 3055 3053 3052 3051 3045 3036 3030 3025 3021 3017 3014 3013 3012 3013 3015 3016 3018 3016 3019 3021 3023 3027 3030 3034 3037 3042 3041 3035 3036 3039 3030 3037 3046 3054 3061 3073 3085 3095
3098 3091 3086 3080 3073 3067 3061 3056 3054 3054 3049 3043 3035 3030 3025 3021 3017 3014 3010 3009 3009 3011 3011 3015 3013 3012 3014 3017 3019 3025 3028 3027 3031 3034 3031 3031 3030 3026 3034 3045 3056 3064 3073 3084 3092
3097 3092 3085 3079 3074 3068 3063 3058 3058 3054 3048 3041 3033 3028 3025 3022 3018 3014 3010 3007 3006 3005 3010 3011 3011 3010 3010 3013 3018 3020 3023 3025 3025 3023 3024 3024 3023 3025 3031 3043 3053 3062 3071 3081 3090
3096 3090 3084 3079 3073 3069 3063 3060 3057 3053 3047 3043 3036 3030 3025 3020 3017 3013 3009 3006 3004 3004 3007 3009 3008 3005 3007 3011 3013 3014 3021 3024 3025 3023 3022 3016 3017 3017 3026 3038 3050 3059 3068 3076 3087
3095 3088 3082 3077 3073 3069 3062 3059 3055 3052 3047 3042 3036 3030 3025 3020 3016 3013 3009 3007 3004 3004 3006 3007 3007 3008 3007 3007 3004 3010 3012 3018 3020 3018 3013 3014 3015 3018 3025 3034 3043 3055 3064 3073 3084
3093 3088 3081 3076 3074 3068 3064 3058 3054 3049 3046 3041 3035 3029 3024 3018 3015 3012 3009 3008 3006 3006 3004 3005 3004 3000 3001 3001 3004 3006 3009 3014 3014 3012 3006 3005 3015 3018 3026 3033 3042 3051 3061 3071 3081
3093 3087 3080 3075 3071 3067 3065 3060 3053 3047 3043 3039 3035 3029 3023 3018 3014 3011 3008 3007 3006 3004 3003 3003 3002 2999 2997 3001 3000 3001 3003 3006 3009 3013 3005 3004 3011 3014 3024 3033 3042 3049 3058 3066 3075
3091 3085 3080 3074 3069 3064 3060 3056 3052 3048 3044 3039 3035 3029 3023 3015 3011 3006 3005 3004 3004 3001 3001 3002 2999 2996 2995 2993 2994 2996 2996 3000 3011 3012 3002 3000 3007 3013 3021 3028 3036 3046 3055 3067 3076
3092 3086 3081 3075 3070 3065 3060 3056 3050 3044 3043 3037 3031 3028 3022 3013 3007 3002 3001 3000 3000 3000 3001 3000 2997 2994 2992 2990 2992 2988 2991 3001 3005 3004 3006 3002 3005 3012 3019 3025 3033 3041 3051 3061 3071
3092 3085 3080 3074 3069 3063 3060 3056 3051 3045 3040 3036 3030 3023 3017 3011 3005 2997 2995 2995 2994 2998 2999 2999 2996 2993 2989 2991 2992 2988 2997 3001 3001 2999 3003 3001 3005 3009 3017 3026 3034 3043 3052 3061 3071
3089 3084 3078 3073 3068 3063 3059 3054 3050 3045 3041 3036 3029 3020 3011 3005 2997 2992 2988 2989 2989 2994 2996 2997 2996 2993 2991 2987 2988 2996 2995 2990 2993 2993 2997 3000 3006 3010 3017 3026 3036 3046 3056 3063 3072